Home > Time Zones > World Clock > Weather > France > Metz > Past weeks

Flag for France Weather past 2 weeks in Metz, France

Now
27 °F

Overcast.


Feels Like: 14 °F
Forecast: 18 / 37 °F
Wind: 17 mph from Northeast

Location: Metz-Nancy-Lorraine

Current Time: Dec 28, 2014 at 10:41:06 AM

Latest Report: Dec 28, 2014 at 10:00 AM


Visibility: N/A

Pressure: 30.01 "Hg

Humidity: 74%

Dew point: 19 °F

Location of MetzLocation

Historic Weather in Metz — Graph

°F

Metz temperature yesterday

Maximum temperature yesterday: 36 °F (at 10:00 AM)
Minimum temperature yesterday: 32 °F (at 4:00 AM)
Average temperature yesterday: 33 °F

Past Weeks' High & Low Weather Summary

 TemperatureHumidityPressure
High54 °F (Dec 18, 1:00 PM)100% (Dec 13, 11:30 PM)30.54 "Hg (Dec 13, 11:30 PM)
Low27 °F (Dec 28, 8:30 AM)71% (Dec 13, 12:00 PM)29.36 "Hg (Dec 27, 1:30 PM)
Average42 °F90%30.11 "Hg
* Reported Dec 13 9:00 AM — Dec 28 9:30 AM, Metz, Weather by CustomWeather, © 2014

Note: Actual official high and low records may vary slightly from our data, if they occured in-between our weather recording intervals... More about our weather records

Advertising

Metz weather history for previous 24 hours

 ConditionsComfort  
Time TempWeatherWind HumidityBarometerVisibility
9:30 AM
Dec 28
27 °FOvercast.21 mph74%29.98 "HgN/A
9:00 AM27 °FOvercast.21 mph80%29.92 "HgN/A
8:30 AM27 °FOvercast.17 mph80%29.89 "HgN/A
8:00 AM28 °FOvercast.18 mph80%29.86 "HgN/A
7:30 AM28 °FOvercast.17 mph80%29.83 "HgN/A
7:00 AM28 °FOvercast.20 mph80%29.80 "HgN/A
6:30 AM28 °FOvercast.20 mph80%29.80 "HgN/A
6:00 AM28 °FOvercast.20 mph86%29.77 "HgN/A
5:30 AM30 °FOvercast.18 mph80%29.74 "HgN/A
4:30 AM30 °FOvercast.22 mph86%29.68 "HgN/A
4:00 AM30 °FOvercast.18 mph86%29.68 "HgN/A
3:30 AM30 °FOvercast.17 mph86%29.65 "HgN/A
3:00 AM30 °FMostly cloudy.17 mph86%29.62 "HgN/A
2:30 AM30 °FMostly cloudy.18 mph86%29.59 "HgN/A
2:00 AM30 °FLight snow. Mostly cloudy.15 mph93%29.59 "HgN/A
1:30 AM30 °FLight snow. Mostly cloudy.13 mph93%29.56 "HgN/A
1:00 AM30 °FLight snow. Partly cloudy.15 mph93%29.53 "HgN/A
12:30 AM32 °FLight snow. Mostly cloudy.16 mph93%29.53 "Hg4 mi
12:00 AM32 °FLight snow. Ice fog.13 mph100%29.50 "Hg2 mi
11:30 PM
Dec 27
32 °FLight snow. Ice fog.9 mph100%29.50 "Hg1 mi
11:00 PM32 °FSnow. Ice fog.10 mph100%29.47 "Hg2 mi
10:30 PM32 °FLight snow. Ice fog.12 mph93%29.47 "Hg2 mi
10:00 PM32 °FLight snow. Low clouds.13 mph93%29.47 "Hg4 mi
9:30 PM32 °FLight snow. Low clouds.16 mph93%29.45 "Hg4 mi
9:00 PM32 °FLight snow. Low clouds.16 mph93%29.45 "HgN/A
8:30 PM32 °FLight snow. Ice fog.16 mph93%29.42 "Hg2 mi
8:00 PM32 °FSnow. Ice fog.16 mph100%29.42 "Hg2 mi
7:30 PM32 °FHeavy snow. Ice fog.20 mph100%29.39 "Hg2 mi
7:00 PM32 °FHeavy snow. Ice fog.16 mph100%29.39 "Hg1 mi
6:30 PM32 °FLight snow. Ice fog.18 mph100%29.39 "Hg2 mi
6:00 PM34 °FLight snow. Overcast.16 mph87%29.39 "HgN/A
5:30 PM34 °FLight snow. Mostly cloudy.18 mph87%29.36 "Hg5 mi
5:00 PM32 °FSnow. Ice fog.18 mph100%29.36 "Hg2 mi
4:30 PM34 °FLight rain. Mostly cloudy.18 mph93%29.36 "HgN/A
4:00 PM34 °FLight snow. More clouds than sun.17 mph93%29.36 "HgN/A
3:30 PM34 °FSnow. Fog.17 mph93%29.36 "Hg3 mi
3:00 PM34 °FLight snow. Low clouds.22 mph100%29.36 "Hg6 mi
2:30 PM34 °FRain. Mostly cloudy.24 mph100%29.36 "HgN/A
2:00 PM36 °FLight rain. Overcast.24 mph93%29.36 "HgN/A
1:30 PM36 °FLight rain. Overcast.20 mph93%29.36 "HgN/A
1:00 PM34 °FLight rain. Low clouds.18 mph100%29.39 "HgN/A
12:30 PM34 °FLight rain. Low clouds.16 mph100%29.39 "HgN/A
12:00 PM34 °FLight rain. Low clouds.16 mph100%29.42 "HgN/A
11:30 AM34 °FLight rain. Mostly cloudy.17 mph100%29.42 "Hg5 mi
11:00 AM36 °FMostly cloudy.16 mph100%29.45 "HgN/A
10:30 AM36 °FPartly sunny.12 mph93%29.45 "HgN/A
10:00 AM36 °FLight rain. Partly sunny.18 mph100%29.45 "Hg5 mi
Weather by CustomWeather, © 2014

See weather overviewHow to use our weather pages